BEIDOU-3 M1 (C19)

Last updated on Sun Oct 19 2025 00:03:25 GMT+0000 (Coordinated Universal Time)

1 43001U 17069A 25290.42931172 -.00000012 00000+0 00000+0 0 9990 2 43001 56.4795 71.0936 0007257 310.4894 49.4402 1.86231215 54081
UTC large
Height (km)
Speed (km/s)
/
Latitude / Longitude
Inclination (degrees)
Orbital Period (minutes)
Azimuth
Elevation
Range (km)
Doppler Factor

Next 0 passes for location: London (51.5072 / 0.1276)

Sorry there are no passes over London.